When you browse on this site, cookies collect data to enhance your experience and personalize the content and advertising you see.
Visit our Privacy Policy to learn more. By continuing to use the site, you agree to this use of cookies and data.
  • In Slovakia
  • List of Countries
  • For 7 days
  • Water Temperature
  • Satellite Maps
  • Weather Map
  • Weather Widgets
  • user-avatar
    Login

    Hourly Weather Djelfa

    Today, 24 March, Sunday

    Time Temperature Precipitation Wind Pressure Humidity
    00:00 +8°C° 0 mm 3 mps 666 mmHg 76%
    01:00 +7°C° 0 mm 3 mps 666 mmHg 76%
    02:00 +7°C° 0 mm 3 mps 666 mmHg 77%
    03:00 +7°C° 0 mm 3 mps 666 mmHg 78%
    04:00 +5°C° 0 mm 3 mps 666 mmHg 78%
    05:00 +6°C° 0 mm 2 mps 666 mmHg 78%
    06:00 +6°C° 0 mm 2 mps 666 mmHg 77%
    07:00 +8°C° 0 mm 3 mps 667 mmHg 68%
    08:00 +8°C° 0 mm 4 mps 667 mmHg 60%
    09:00 +11°C° 0 mm 4 mps 668 mmHg 51%
    10:00 +12°C° 0 mm 4 mps 668 mmHg 48%
    11:00 +13°C° 0 mm 4 mps 668 mmHg 44%
    12:00 +13°C° 0 mm 4 mps 668 mmHg 41%
    13:00 +14°C° 0 mm 4 mps 668 mmHg 39%
    14:00 +14°C° 0 mm 4 mps 667 mmHg 38%
    15:00 +14°C° 0 mm 3 mps 667 mmHg 36%
    16:00 +14°C° 0 mm 3 mps 667 mmHg 37%
    17:00 +14°C° 0 mm 3 mps 667 mmHg 38%
    18:00 +13°C° 0 mm 3 mps 666 mmHg 38%
    19:00 +12°C° 0 mm 4 mps 667 mmHg 40%
    20:00 +11°C° 0 mm 4 mps 667 mmHg 42%
    21:00 +11°C° 0 mm 4 mps 667 mmHg 43%
    22:00 +10°C° 0 mm 4 mps 667 mmHg 45%
    23:00 +10°C° 0 mm 4 mps 667 mmHg 46%

    Tomorrow, 25 March, Monday

    Time Temperature Precipitation Wind Pressure Humidity
    00:00 +8°C° 0 mm 4 mps 667 mmHg 48%
    01:00 +8°C° 0 mm 4 mps 666 mmHg 49%
    02:00 +8°C° 0 mm 3 mps 666 mmHg 50%
    03:00 +8°C° 0 mm 3 mps 666 mmHg 50%
    04:00 +8°C° 0 mm 3 mps 666 mmHg 51%
    05:00 +8°C° 0 mm 2 mps 666 mmHg 52%
    06:00 +8°C° 0 mm 2 mps 666 mmHg 52%
    07:00 +9°C° 0 mm 2 mps 666 mmHg 47%
    08:00 +11°C° 0 mm 3 mps 667 mmHg 42%
    09:00 +12°C° 0 mm 3 mps 667 mmHg 38%
    10:00 +13°C° 0 mm 3 mps 667 mmHg 36%
    11:00 +15°C° 0 mm 4 mps 667 mmHg 34%
    12:00 +17°C° 0 mm 4 mps 667 mmHg 32%
    13:00 +17°C° 0 mm 4 mps 666 mmHg 32%
    14:00 +17°C° 0 mm 4 mps 666 mmHg 31%
    15:00 +18°C° 0 mm 4 mps 665 mmHg 31%
    16:00 +17°C° 0 mm 4 mps 665 mmHg 34%
    17:00 +17°C° 0 mm 4 mps 665 mmHg 38%
    18:00 +15°C° 0 mm 4 mps 664 mmHg 41%
    19:00 +14°C° 0 mm 3 mps 664 mmHg 47%
    20:00 +13°C° 0 mm 3 mps 664 mmHg 52%
    21:00 +12°C° 0 mm 3 mps 664 mmHg 57%
    22:00 +12°C° 0 mm 3 mps 664 mmHg 59%
    23:00 +12°C° 0 mm 2 mps 664 mmHg 61%

    Day after tomorrow, 26 March, Tuesday

    Time Temperature Precipitation Wind Pressure Humidity
    00:00 +12°C° 0 mm 2 mps 664 mmHg 63%
    01:00 +12°C° 0 mm 2 mps 663 mmHg 62%
    02:00 +10°C° 0 mm 2 mps 663 mmHg 61%
    03:00 +10°C° 0 mm 2 mps 663 mmHg 60%
    04:00 +10°C° 0 mm 2 mps 663 mmHg 61%
    05:00 +10°C° 0 mm 2 mps 662 mmHg 61%
    06:00 +10°C° 0 mm 2 mps 662 mmHg 62%
    07:00 +13°C° 0 mm 2 mps 663 mmHg 55%
    08:00 +15°C° 0 mm 2 mps 664 mmHg 49%
    09:00 +16°C° 0 mm 3 mps 664 mmHg 42%
    10:00 +16°C° 0.1 mm 3 mps 664 mmHg 44%
    11:00 +16°C° 0.1 mm 3 mps 664 mmHg 45%
    12:00 +16°C° 0.1 mm 3 mps 664 mmHg 46%
    13:00 +15°C° 0 mm 4 mps 664 mmHg 47%
    14:00 +15°C° 0 mm 4 mps 663 mmHg 47%
    15:00 +16°C° 0 mm 5 mps 663 mmHg 48%
    16:00 +14°C° 0 mm 5 mps 663 mmHg 54%
    17:00 +13°C° 0 mm 5 mps 663 mmHg 60%
    18:00 +12°C° 0 mm 5 mps 663 mmHg 65%
    19:00 +10°C° 0 mm 5 mps 663 mmHg 71%
    20:00 +9°C° 0 mm 5 mps 663 mmHg 76%
    21:00 +9°C° 0 mm 5 mps 663 mmHg 82%
    22:00 +8°C° 0 mm 5 mps 663 mmHg 81%
    23:00 +7°C° 0 mm 5 mps 663 mmHg 80%

    27 March, Wednesday

    Time Temperature Precipitation Wind Pressure Humidity
    00:00 +7°C° 0 mm 4 mps 663 mmHg 79%
    01:00 +6°C° 0 mm 4 mps 663 mmHg 78%
    02:00 +6°C° 0 mm 5 mps 663 mmHg 77%
    03:00 +5°C° 0 mm 5 mps 662 mmHg 76%
    04:00 +5°C° 0 mm 4 mps 662 mmHg 74%
    05:00 +4°C° 0 mm 4 mps 662 mmHg 73%
    06:00 +4°C° 0 mm 4 mps 662 mmHg 72%
    07:00 +5°C° 0 mm 4 mps 663 mmHg 69%
    08:00 +6°C° 0 mm 4 mps 663 mmHg 65%
    09:00 +6°C° 0 mm 4 mps 664 mmHg 62%
    10:00 +7°C° 0.1 mm 4 mps 664 mmHg 60%
    11:00 +8°C° 0.1 mm 4 mps 664 mmHg 57%
    12:00 +10°C° 0.1 mm 4 mps 664 mmHg 55%
    13:00 +10°C° 0.1 mm 4 mps 663 mmHg 57%
    14:00 +8°C° 0.1 mm 4 mps 663 mmHg 58%
    15:00 +8°C° 0.1 mm 4 mps 663 mmHg 60%
    16:00 +8°C° 0 mm 4 mps 663 mmHg 62%
    17:00 +7°C° 0 mm 4 mps 663 mmHg 64%
    18:00 +7°C° 0 mm 4 mps 663 mmHg 66%
    19:00 +7°C° 0 mm 4 mps 664 mmHg 65%
    20:00 +6°C° 0 mm 4 mps 664 mmHg 64%
    21:00 +6°C° 0 mm 4 mps 665 mmHg 64%
    22:00 +6°C° 0 mm 4 mps 665 mmHg 64%
    23:00 +7°C° 0 mm 3 mps 665 mmHg 65%

    28 March, Thursday

    Time Temperature Precipitation Wind Pressure Humidity
    00:00 +5°C° 0 mm 3 mps 664 mmHg 66%
    01:00 +5°C° 0 mm 3 mps 664 mmHg 68%
    02:00 +6°C° 0 mm 2 mps 664 mmHg 69%
    03:00 +6°C° 0 mm 2 mps 664 mmHg 71%
    04:00 +5°C° 0 mm 2 mps 664 mmHg 74%
    05:00 +5°C° 0 mm 2 mps 665 mmHg 77%
    06:00 +5°C° 0 mm 2 mps 665 mmHg 80%
    07:00 +7°C° 0 mm 1 mps 665 mmHg 74%
    08:00 +8°C° 0 mm 1 mps 666 mmHg 68%
    09:00 +9°C° 0 mm 1 mps 667 mmHg 62%
    10:00 +10°C° 0 mm 1 mps 667 mmHg 58%
    11:00 +11°C° 0 mm 1 mps 667 mmHg 54%
    12:00 +12°C° 0 mm 1 mps 667 mmHg 49%
    13:00 +13°C° 0 mm 1 mps 666 mmHg 47%
    14:00 +13°C° 0 mm 1 mps 666 mmHg 44%
    15:00 +14°C° 0 mm 1 mps 666 mmHg 41%
    16:00 +13°C° 0 mm 1 mps 666 mmHg 41%
    17:00 +13°C° 0 mm 1 mps 666 mmHg 40%
    18:00 +13°C° 0 mm 2 mps 666 mmHg 40%
    19:00 +13°C° 0 mm 1 mps 667 mmHg 43%
    20:00 +12°C° 0 mm 1 mps 667 mmHg 45%
    21:00 +11°C° 0 mm 1 mps 668 mmHg 48%
    22:00 +10°C° 0 mm 2 mps 667 mmHg 50%
    23:00 +9°C° 0 mm 2 mps 667 mmHg 53%

    29 March, Friday

    Time Temperature Precipitation Wind Pressure Humidity
    00:00 +9°C° 0 mm 2 mps 667 mmHg 55%
    01:00 +8°C° 0 mm 2 mps 667 mmHg 59%
    02:00 +8°C° 0 mm 2 mps 667 mmHg 62%
    03:00 +8°C° 0 mm 2 mps 667 mmHg 66%
    04:00 +7°C° 0 mm 2 mps 667 mmHg 68%
    05:00 +7°C° 0 mm 2 mps 667 mmHg 70%
    06:00 +7°C° 0 mm 2 mps 667 mmHg 71%
    07:00 +9°C° 0 mm 2 mps 668 mmHg 65%
    08:00 +10°C° 0 mm 3 mps 668 mmHg 59%
    09:00 +11°C° 0 mm 4 mps 669 mmHg 54%
    10:00 +12°C° 0 mm 3 mps 669 mmHg 51%
    11:00 +13°C° 0 mm 3 mps 668 mmHg 49%
    12:00 +14°C° 0 mm 3 mps 668 mmHg 46%
    13:00 +14°C° 0.2 mm 3 mps 668 mmHg 48%
    14:00 +14°C° 0.2 mm 3 mps 667 mmHg 49%
    15:00 +14°C° 0.2 mm 3 mps 667 mmHg 51%
    16:00 +13°C° 1.2 mm 3 mps 667 mmHg 60%
    17:00 +12°C° 1.2 mm 3 mps 667 mmHg 69%
    18:00 +12°C° 1.2 mm 2 mps 666 mmHg 78%
    19:00 +10°C° 1.1 mm 2 mps 667 mmHg 79%
    20:00 +10°C° 1.1 mm 2 mps 667 mmHg 81%
    21:00 +10°C° 1.1 mm 1 mps 667 mmHg 83%
    22:00 +9°C° 1.8 mm 2 mps 667 mmHg 83%
    23:00 +9°C° 1.8 mm 2 mps 667 mmHg 84%
    Show more